Weather History for CWSS - February, 2013

Change the Weather History Date:

Wednesday, February 20, 2013

  Actual Average Record
Temperature  
Mean Temperature 37 °F -  
Max Temperature 45 °F - - ()
Min Temperature 29 °F - - ()
Degree Days  
Heating Degree Days 28    
Moisture  
Dew Point 31 °F    
Average Humidity 81    
Maximum Humidity 96    
Minimum Humidity 58    
Precipitation  
Precipitation 0.43 in - - ()
Sea Level Pressure  
Sea Level Pressure 29.51 in    
Wind  
Wind Speed 8 mph ()    
Max Wind Speed 18 mph    
Max Gust Speed 31 mph    
T = Trace of Precipitation, MM = Missing Value Source: Averaged Metar Reports

Daily Weather History Graph

Daily Weather History Graph

Search for Another Location

Airport or City:

Trip Planner

Search our weather history database for the weather conditions in past years. The results will help you decide how hot, cold, wet, or windy it might be!

Date:

Astronomy

Feb. 20, 2013 Rise Set
Actual Time 7:22 AM AST 6:04 PM AST
Civil Twilight 6:52 AM AST 6:34 PM AST
Nautical Twilight 6:17 AM AST 7:08 PM AST
Astronomical Twilight 5:43 AM AST 7:42 PM AST
Moon 1:13 PM AST (2/20) 3:47 AM AST (2/20)
Length of Visible Light 11h 42m
Length of Day
10h 42m
Waxing Gibbous, 75% of the Moon is Illuminated
Feb 20
Waxing Gibbous
Feb 25
Full
Mar 4
Last Quarter
Mar 11
New
Mar 19
First Quarter

Hourly Weather History & Observations

Time (AST) Temp. Windchill Dew Point Humidity Pressure Visibility Wind Dir Wind Speed Gust Speed Precip Events Conditions
12:00 AM 35.1 °F 32.2 °F 30.7 °F 84% 29.84 in - East 3.5 mph - N/A   Unknown
1:00 AM 36.5 °F 31.0 °F 31.3 °F 81% 29.78 in - East 6.9 mph - N/A   Unknown
2:00 AM 36 °F - 34 °F 88% 29.79 in - ESE 5.8 mph - -  
2:00 AM 36.5 °F 31.8 °F 33.8 °F 90% 29.79 in - ESE 5.8 mph - N/A   Unknown
3:00 AM 36.1 °F 28.7 °F 34.7 °F 94% 29.75 in - East 10.4 mph - 0.02 in   Unknown
4:00 AM 35.8 °F 28.8 °F 34.7 °F 96% 29.68 in - East 9.2 mph 17.3 mph 0.05 in   Unknown
5:00 AM 36 °F - 35 °F 95% 29.62 in - East 11.5 mph - -  
5:00 AM 36.1 °F 28.2 °F 35.1 °F 96% 29.62 in - East 11.5 mph 18.4 mph 0.07 in   Unknown
6:00 AM 37.0 °F 28.5 °F 35.8 °F 95% 29.54 in - East 13.8 mph 21.9 mph 0.07 in   Unknown
7:00 AM 37.4 °F 27.5 °F 36.0 °F 95% 29.44 in - East 18.4 mph 31.1 mph 0.08 in   Unknown
8:00 AM 38 °F - 36 °F 92% 29.39 in - East 18.4 mph - -  
8:00 AM 37.9 °F 28.2 °F 36.5 °F 95% 29.39 in - East 18.4 mph 29.9 mph 0.15 in   Unknown
9:00 AM 37.4 °F 28.9 °F 36.1 °F 95% 29.38 in - ESE 13.8 mph 23.0 mph 0.17 in   Unknown
10:00 AM 38.1 °F 32.9 °F 37.0 °F 96% 29.39 in - East 6.9 mph - 0.15 in   Unknown
11:00 AM 43 °F - 40 °F 83% 29.40 in - SSE 3.5 mph - -  
12:00 PM 41.7 °F 36.1 °F 35.6 °F 79% 29.40 in - WSW 9.2 mph - N/A   Unknown
1:00 PM 37.9 °F 32.7 °F 31.5 °F 77% 29.40 in - West 6.9 mph - N/A   Unknown
2:00 PM 36 °F - 30 °F 72% 29.40 in - West 11.5 mph - -  
2:00 PM 36.0 °F 28.0 °F 30.2 °F 80% 29.40 in - West 11.5 mph - N/A   Unknown
3:00 PM 35.6 °F 28.0 °F 28.4 °F 75% 29.41 in - WSW 10.4 mph - N/A   Unknown
4:00 PM 35.2 °F 28.8 °F 26.4 °F 70% 29.41 in - West 8.1 mph - N/A   Unknown
5:00 PM 35 °F - 27 °F 62% 29.43 in - West 4.6 mph - -  
5:00 PM 34.9 °F 30.8 °F 26.8 °F 72% 29.43 in - West 4.6 mph - N/A   Unknown
6:00 PM 34.2 °F 29.0 °F 26.4 °F 73% 29.45 in - West 5.8 mph - N/A   Unknown
7:00 PM 33.8 °F 29.6 °F 26.8 °F 75% 29.47 in - West 4.6 mph - N/A   Unknown
8:00 PM 33 °F - 26 °F 65% 29.47 in - West 5.8 mph - -  
8:00 PM 33.3 °F 27.9 °F 25.7 °F 74% 29.47 in - West 5.8 mph - N/A   Unknown
9:00 PM 31.6 °F 25.1 °F 24.1 °F 74% 29.47 in - West 6.9 mph - N/A   Unknown
10:00 PM 31.5 °F 24.9 °F 22.6 °F 70% 29.48 in - West 6.9 mph - N/A   Unknown
11:00 PM 31 °F - 22 °F 58% 29.48 in - West 8.1 mph - -  
11:00 PM 30.6 °F 23.1 °F 21.7 °F 70% 29.48 in - West 8.1 mph - N/A   Unknown